sat.trackr.live / text

‹ back to catalog

STARLINK-30612

NORAD 58106 · 2023-161K

PAYLOAD ACTIVE UNKNOWN

§ Identity

Operator
Country
US
Launch date
2023-10-21
Launch site
AFWTR
Launch vehicle
Mass (kg)
RCS (m²)

Purposes: comms

External: N2YO · Heavens-Above · Gunter

§ Orbital elements

Epoch: 2026-05-24T17:52:52.134240Z

Period
93.85 min
Inclination
53.1601°
Eccentricity
0.0000876
Mean motion
15.34428474 rev/d
Perigee alt
462.0 km
Apogee alt
463.2 km
Semi-major
6,840.8 km
B*
-2.3946e-4
RAAN
158.7898°
Arg perigee
102.8117°
Mean anomaly
257.2983°
Rev number
14,624

§ Raw data

STARLINK-306121 58106U 23161K   26144.74504785 -.00008465  00000+0 -23946-3 0  99912 58106  53.1601 158.7898 0000876 102.8117 257.2983 15.34428474146240

JSON: /api/v1/satellites/58106 · /tle

For live sub-satellite position, see the globe view (requires WebGL).

§ Visibility from observer

Set your observer location to see the next 7 days of passes ≥ 10°. The values pass through the URL so the page stays shareable.

No JS? Fill the form by hand. The geolocation button needs JavaScript.